EXS36ME LOWW-EGCC

Flight info

Callsign EXS36ME
Flight time N/A
Altitude 34000
Route BUWUT DCT DITIS DCT OKG DCT VELIS DCT SWALM DCT TIVUN DCT DIBIR DCT GALSO Q63 ERING L179 LAM UN57 WELIN T420 ELVOS
Aircraft A321/M-SDE3FGHIRWY/LB1

Departure

Time 2026-05-04 13:40
Airport Vienna International Airport (LOWW)

Arrival

Time N/A
Airport Manchester Airport (EGCC)
Time Latitude Longitude Altitude Speed Heading
2026-05-04 12:58 48.11667 16.56895 611 ft 0 kts 27°
2026-05-04 13:28 48.11664 16.56892 605 ft 3 kts 27°
2026-05-04 13:28 48.11640 16.56874 611 ft 4 kts 31°
2026-05-04 13:28 48.11619 16.56850 620 ft 4 kts 56°
2026-05-04 13:28 48.11610 16.56815 616 ft 4 kts 97°
2026-05-04 13:29 48.11611 16.56805 617 ft 2 kts 105°
2026-05-04 13:31 48.11608 16.56824 615 ft 5 kts 105°
2026-05-04 13:31 48.11593 16.56876 616 ft 7 kts 116°
2026-05-04 13:31 48.11566 16.56962 620 ft 9 kts 115°
2026-05-04 13:31 48.11537 16.57050 619 ft 9 kts 117°
2026-05-04 13:32 48.11503 16.57151 614 ft 11 kts 116°
2026-05-04 13:32 48.11472 16.57248 625 ft 10 kts 116°
2026-05-04 13:32 48.11442 16.57339 623 ft 10 kts 116°
2026-05-04 13:32 48.11448 16.57426 619 ft 10 kts 41°
2026-05-04 13:33 48.11513 16.57480 613 ft 12 kts 28°
2026-05-04 13:33 48.11581 16.57536 616 ft 10 kts 29°
2026-05-04 13:33 48.11643 16.57541 613 ft 9 kts 346°
2026-05-04 13:33 48.11706 16.57515 609 ft 10 kts 345°
2026-05-04 13:34 48.11776 16.57484 603 ft 12 kts 343°
2026-05-04 13:34 48.11860 16.57449 601 ft 13 kts 345°
2026-05-04 13:34 48.11945 16.57413 600 ft 12 kts 343°
2026-05-04 13:34 48.12009 16.57435 599 ft 10 kts 57°
2026-05-04 13:35 48.12006 16.57532 598 ft 10 kts 103°
2026-05-04 13:35 48.11998 16.57576 598 ft 0 kts 104°
2026-05-04 13:37 48.11998 16.57577 598 ft 1 kts 104°
2026-05-04 13:37 48.11989 16.57630 597 ft 9 kts 104°
2026-05-04 13:37 48.11974 16.57724 597 ft 9 kts 104°
2026-05-04 13:38 48.11955 16.57816 599 ft 5 kts 121°
2026-05-04 13:38 48.11931 16.57838 600 ft 0 kts 163°
2026-05-04 13:38 48.11930 16.57838 600 ft 1 kts 163°
2026-05-04 13:39 48.11837 16.57878 601 ft 44 kts 164°
2026-05-04 13:39 48.11352 16.58083 614 ft 101 kts 164°
2026-05-04 13:39 48.10526 16.58433 610 ft 145 kts 164°
2026-05-04 13:39 48.09472 16.58875 848 ft 160 kts 161°
2026-05-04 13:40 48.08415 16.59323 1453 ft 158 kts 164°
2026-05-04 13:40 48.07353 16.59785 1983 ft 160 kts 166°
2026-05-04 13:40 48.06278 16.60332 2365 ft 172 kts 155°
2026-05-04 13:40 48.05279 16.61533 2472 ft 199 kts 133°
2026-05-04 13:41 48.04645 16.63408 2942 ft 208 kts 110°
2026-05-04 13:41 48.04570 16.65620 3360 ft 222 kts 85°
2026-05-04 13:41 48.05186 16.67799 3802 ft 235 kts 56°
2026-05-04 13:42 48.07889 16.71107 4488 ft 275 kts 37°
2026-05-04 13:42 48.09480 16.72832 4936 ft 288 kts 37°
2026-05-04 13:42 48.11112 16.74595 5664 ft 292 kts 37°
2026-05-04 13:42 48.12763 16.76397 6362 ft 298 kts 36°
2026-05-04 13:43 48.14553 16.77960 7091 ft 299 kts 20°
2026-05-04 13:43 48.16569 16.78654 7888 ft 300 kts
2026-05-04 13:43 48.18643 16.78411 8600 ft 301 kts 347°
2026-05-04 13:43 48.20714 16.77848 9372 ft 304 kts 347°
2026-05-04 13:44 48.22804 16.77284 10128 ft 307 kts 347°
2026-05-04 13:44 48.24883 16.76728 10870 ft 309 kts 347°
2026-05-04 13:44 48.27034 16.76158 11365 ft 323 kts 347°
2026-05-04 13:44 48.29320 16.75552 11535 ft 346 kts 347°
2026-05-04 13:45 48.31768 16.74903 11689 ft 367 kts 347°
2026-05-04 13:45 48.34279 16.74015 12125 ft 374 kts 338°
2026-05-04 13:45 48.36651 16.72405 12743 ft 375 kts 329°
2026-05-04 13:45 48.38983 16.70587 13369 ft 379 kts 330°
2026-05-04 13:46 48.41276 16.68615 13975 ft 380 kts 321°
2026-05-04 13:46 48.43275 16.66026 14528 ft 379 kts 309°
2026-05-04 13:46 48.44878 16.62891 15086 ft 377 kts 298°
2026-05-04 13:46 48.46025 16.59356 15653 ft 376 kts 288°
2026-05-04 13:47 48.46932 16.55649 16227 ft 378 kts 288°
2026-05-04 13:47 48.47850 16.51917 16778 ft 381 kts 288°
2026-05-04 13:47 48.48779 16.48159 17339 ft 384 kts 288°
2026-05-04 13:47 48.49716 16.44377 17869 ft 387 kts 288°
2026-05-04 13:48 48.50660 16.40558 18374 ft 390 kts 288°
2026-05-04 13:48 48.51603 16.36719 18829 ft 392 kts 288°
2026-05-04 13:48 48.52549 16.32856 19287 ft 394 kts 288°
2026-05-04 13:48 48.53502 16.28966 19743 ft 396 kts 288°
2026-05-04 13:49 48.54458 16.25060 20196 ft 398 kts 288°
2026-05-04 13:49 48.55417 16.21129 20649 ft 400 kts 288°
2026-05-04 13:49 48.56379 16.17175 21087 ft 402 kts 288°
2026-05-04 13:49 48.57347 16.13197 21501 ft 405 kts 289°
2026-05-04 13:50 48.58384 16.09222 21910 ft 408 kts 291°
2026-05-04 13:50 48.59503 16.05263 22327 ft 411 kts 292°
2026-05-04 13:50 48.60652 16.01362 22730 ft 414 kts 293°
2026-05-04 13:50 48.61835 15.97386 23139 ft 416 kts 293°
2026-05-04 13:51 48.63016 15.93382 23567 ft 418 kts 293°
2026-05-04 13:51 48.64189 15.89345 23907 ft 421 kts 292°
2026-05-04 13:51 48.65351 15.85283 24252 ft 422 kts 292°
2026-05-04 13:51 48.66510 15.81195 24623 ft 423 kts 292°
2026-05-04 13:52 48.68828 15.72966 25307 ft 427 kts 292°
2026-05-04 13:52 48.69993 15.68830 25644 ft 428 kts 292°
2026-05-04 13:52 48.71162 15.64670 25979 ft 430 kts 292°
2026-05-04 13:53 48.72337 15.60497 26294 ft 432 kts 292°
2026-05-04 13:53 48.73518 15.56306 26640 ft 433 kts 292°
2026-05-04 13:53 48.74700 15.52103 26962 ft 435 kts 292°
2026-05-04 13:54 48.77080 15.43628 27566 ft 439 kts 292°
2026-05-04 13:54 48.78272 15.39362 27859 ft 441 kts 292°
2026-05-04 13:54 48.80800 15.30927 28436 ft 445 kts 299°
2026-05-04 13:55 48.82536 15.27029 28721 ft 447 kts 304°
2026-05-04 13:55 48.86178 15.19345 29404 ft 447 kts 304°
2026-05-04 13:55 48.87984 15.15515 29820 ft 446 kts 304°
2026-05-04 13:56 48.89787 15.11685 30202 ft 444 kts 304°
2026-05-04 13:56 48.91565 15.07850 30549 ft 443 kts 303°
2026-05-04 13:56 48.95037 15.00155 31254 ft 440 kts 302°
2026-05-04 13:57 48.96750 14.96309 31631 ft 438 kts 302°
2026-05-04 13:57 48.98458 14.92484 32008 ft 436 kts 302°
2026-05-04 13:58 49.03559 14.81095 33130 ft 431 kts 302°
2026-05-04 13:58 49.06926 14.73563 33844 ft 428 kts 302°
2026-05-04 13:58 49.08596 14.69814 33961 ft 426 kts 302°
2026-05-04 13:59 49.11899 14.62400 33968 ft 420 kts 302°
2026-05-04 14:00 49.16807 14.51340 33980 ft 419 kts 302°
2026-05-04 14:00 49.21701 14.40262 33985 ft 419 kts 302°
2026-05-04 14:01 49.24954 14.32868 33981 ft 419 kts 301°
2026-05-04 14:02 49.29836 14.21750 33977 ft 420 kts 301°
2026-05-04 14:02 49.33089 14.14311 33985 ft 420 kts 301°
2026-05-04 14:03 49.36312 14.06915 33980 ft 420 kts 301°
2026-05-04 14:03 49.39558 13.99452 33975 ft 420 kts 301°
2026-05-04 14:04 49.44414 13.88237 33978 ft 420 kts 301°
2026-05-04 14:04 49.47649 13.80743 33976 ft 421 kts 301°
2026-05-04 14:05 49.52497 13.69482 33985 ft 421 kts 301°
2026-05-04 14:06 49.55721 13.61958 33989 ft 421 kts 301°
2026-05-04 14:06 49.58946 13.54422 33999 ft 421 kts 300°
2026-05-04 14:07 49.62167 13.46871 34002 ft 421 kts 300°
2026-05-04 14:07 49.65387 13.39317 34011 ft 422 kts 300°
2026-05-04 14:08 49.68578 13.31789 34007 ft 422 kts 300°
2026-05-04 14:08 49.71779 13.24196 34004 ft 422 kts 300°
2026-05-04 14:09 49.76584 13.12791 33998 ft 422 kts 300°
2026-05-04 14:10 49.81380 13.01362 33971 ft 422 kts 300°
2026-05-04 14:10 49.84562 12.93738 33972 ft 422 kts 300°
2026-05-04 14:11 49.87746 12.86101 33969 ft 422 kts 300°
2026-05-04 14:11 49.92512 12.74621 33997 ft 422 kts 299°
2026-05-04 14:12 49.95678 12.66964 34008 ft 421 kts 299°
2026-05-04 14:13 50.00397 12.55502 33992 ft 420 kts 299°
2026-05-04 14:13 50.03536 12.47858 33988 ft 419 kts 299°
2026-05-04 14:14 50.06520 12.40094 33982 ft 416 kts 291°
2026-05-04 14:14 50.09390 12.27422 33964 ft 414 kts 285°
2026-05-04 14:15 50.13098 12.10409 33976 ft 415 kts 285°
2026-05-04 14:16 50.15844 11.97617 33992 ft 415 kts 285°
2026-05-04 14:17 50.18605 11.84775 33984 ft 417 kts 285°
2026-05-04 14:18 50.21336 11.71932 33981 ft 418 kts 285°
2026-05-04 14:19 50.24973 11.54672 34003 ft 418 kts 285°
2026-05-04 14:19 50.26784 11.46041 34008 ft 417 kts 285°
2026-05-04 14:20 50.28584 11.37430 34001 ft 417 kts 285°
2026-05-04 14:20 50.30379 11.28817 33994 ft 416 kts 285°
2026-05-04 14:21 50.33056 11.15897 33994 ft 416 kts 285°
2026-05-04 14:21 50.34830 11.07282 34012 ft 416 kts 284°
2026-05-04 14:22 50.36591 10.98671 34018 ft 414 kts 284°
2026-05-04 14:22 50.38338 10.90075 34010 ft 414 kts 284°
2026-05-04 14:23 50.40955 10.77196 34006 ft 413 kts 284°
2026-05-04 14:24 50.42688 10.68618 34011 ft 412 kts 284°
2026-05-04 14:24 50.44411 10.60046 34004 ft 412 kts 284°
2026-05-04 14:25 50.46121 10.51468 33998 ft 412 kts 283°
2026-05-04 14:25 50.48694 10.38623 33987 ft 411 kts 284°
2026-05-04 14:26 50.50412 10.30107 33983 ft 411 kts 284°
2026-05-04 14:26 50.52092 10.21719 34000 ft 411 kts 283°
2026-05-04 14:27 50.53792 10.13159 33994 ft 410 kts 283°
2026-05-04 14:27 50.55489 10.04593 33986 ft 410 kts 283°
2026-05-04 14:28 50.57177 9.96025 33974 ft 410 kts 283°
2026-05-04 14:28 50.58855 9.87446 33984 ft 410 kts 283°
2026-05-04 14:29 50.62221 9.70336 33980 ft 411 kts 283°
2026-05-04 14:30 50.63965 9.61750 33976 ft 412 kts 283°
2026-05-04 14:31 50.66578 9.48863 33978 ft 411 kts 283°
2026-05-04 14:32 50.69737 9.33059 33983 ft 411 kts 283°
2026-05-04 14:32 50.71432 9.24507 33972 ft 411 kts 282°
2026-05-04 14:33 50.73135 9.15888 33968 ft 411 kts 282°
2026-05-04 14:33 50.74830 9.07256 33967 ft 412 kts 282°
2026-05-04 14:34 50.76525 8.98613 33969 ft 412 kts 282°
2026-05-04 14:34 50.78213 8.89950 33971 ft 413 kts 282°
2026-05-04 14:35 50.79891 8.81284 33972 ft 412 kts 282°
2026-05-04 14:35 50.81560 8.72616 33973 ft 412 kts 282°
2026-05-04 14:36 50.83222 8.63931 33977 ft 412 kts 282°
2026-05-04 14:36 50.84882 8.55249 33973 ft 412 kts 282°
2026-05-04 14:37 50.86542 8.46556 33989 ft 413 kts 282°
2026-05-04 14:37 50.88189 8.37851 33988 ft 413 kts 282°
2026-05-04 14:38 50.89837 8.29113 33990 ft 414 kts 282°
2026-05-04 14:38 50.91485 8.20363 33993 ft 415 kts 282°
2026-05-04 14:39 50.93121 8.11599 33992 ft 415 kts 282°
2026-05-04 14:39 50.94750 8.02822 34010 ft 415 kts 282°
2026-05-04 14:40 50.97188 7.89618 33987 ft 416 kts 281°
2026-05-04 14:40 50.98812 7.80787 33978 ft 417 kts 281°
2026-05-04 14:41 51.00429 7.71957 33972 ft 417 kts 281°
2026-05-04 14:42 51.03641 7.54255 33977 ft 417 kts 281°
2026-05-04 14:42 51.05236 7.45388 33975 ft 418 kts 281°
2026-05-04 14:43 51.06828 7.36489 33973 ft 418 kts 281°
2026-05-04 14:43 51.08416 7.27589 33971 ft 419 kts 281°
2026-05-04 14:44 51.09998 7.18677 33972 ft 419 kts 281°
2026-05-04 14:44 51.11574 7.09751 33965 ft 419 kts 280°
2026-05-04 14:45 51.13135 7.00870 33985 ft 420 kts 280°
2026-05-04 14:45 51.14705 6.91918 33996 ft 420 kts 280°
2026-05-04 14:46 51.16277 6.82912 33998 ft 420 kts 280°
2026-05-04 14:46 51.17828 6.73943 34002 ft 420 kts 280°
2026-05-04 14:47 51.19360 6.65016 34019 ft 420 kts 279°
2026-05-04 14:47 51.20891 6.56074 33970 ft 419 kts 279°
2026-05-04 14:48 51.22422 6.47114 33970 ft 419 kts 279°
2026-05-04 14:48 51.23949 6.38149 33965 ft 419 kts 279°
2026-05-04 14:49 51.25463 6.29176 33960 ft 419 kts 279°
2026-05-04 14:49 51.26966 6.20193 33987 ft 419 kts 279°
2026-05-04 14:50 51.28466 6.11172 33971 ft 420 kts 279°
2026-05-04 14:50 51.29966 6.02143 33962 ft 421 kts 279°
2026-05-04 14:51 51.31458 5.93092 33959 ft 421 kts 279°
2026-05-04 14:51 51.32947 5.84034 33958 ft 422 kts 279°
2026-05-04 14:52 51.34435 5.74951 33971 ft 422 kts 279°
2026-05-04 14:52 51.35916 5.65851 33972 ft 423 kts 278°
2026-05-04 14:53 51.37379 5.56804 33962 ft 423 kts 278°
2026-05-04 14:53 51.38858 5.47634 33962 ft 423 kts 278°
2026-05-04 14:54 51.40308 5.38550 33962 ft 424 kts 278°
2026-05-04 14:54 51.41762 5.29399 33965 ft 424 kts 278°
2026-05-04 14:55 51.43210 5.20249 33974 ft 424 kts 278°
2026-05-04 14:55 51.44656 5.11087 33967 ft 424 kts 278°
2026-05-04 14:56 51.46095 5.01901 33962 ft 425 kts 278°
2026-05-04 14:56 51.47517 4.92716 33986 ft 424 kts 278°
2026-05-04 14:57 51.48932 4.83546 33987 ft 423 kts 278°
2026-05-04 14:57 51.50345 4.74388 33983 ft 423 kts 278°
2026-05-04 14:58 51.51748 4.65217 33970 ft 423 kts 278°
2026-05-04 14:58 51.53147 4.56030 33962 ft 423 kts 278°
2026-05-04 14:59 51.54541 4.46835 33958 ft 424 kts 278°
2026-05-04 15:00 51.56613 4.33025 33959 ft 424 kts 277°
2026-05-04 15:00 51.57985 4.23806 33960 ft 424 kts 277°
2026-05-04 15:01 51.60029 4.09961 33969 ft 424 kts 277°
2026-05-04 15:01 51.61390 4.00713 33978 ft 425 kts 277°
2026-05-04 15:02 51.62742 3.91467 33985 ft 425 kts 277°
2026-05-04 15:02 51.64083 3.82209 34005 ft 425 kts 277°
2026-05-04 15:03 51.65417 3.72920 33997 ft 426 kts 277°
2026-05-04 15:03 51.66746 3.63629 34008 ft 426 kts 277°
2026-05-04 15:04 51.68076 3.54325 34004 ft 426 kts 277°
2026-05-04 15:04 51.69399 3.45004 34004 ft 427 kts 277°
2026-05-04 15:05 51.70715 3.35676 34020 ft 427 kts 277°
2026-05-04 15:05 51.72009 3.26401 34015 ft 427 kts 277°
2026-05-04 15:06 51.73354 3.17061 34020 ft 428 kts 278°
2026-05-04 15:07 51.75429 3.03053 34015 ft 428 kts 278°
2026-05-04 15:07 51.76783 2.93692 34018 ft 428 kts 278°
2026-05-04 15:08 51.78125 2.84332 34021 ft 428 kts 278°
2026-05-04 15:08 51.79453 2.74974 34017 ft 428 kts 278°
2026-05-04 15:09 51.80783 2.65617 34007 ft 427 kts 278°
2026-05-04 15:09 51.82109 2.56256 34005 ft 427 kts 278°
2026-05-04 15:10 51.84073 2.42214 34023 ft 427 kts 278°
2026-05-04 15:11 51.86025 2.28155 34012 ft 427 kts 278°
2026-05-04 15:11 51.87316 2.18765 34008 ft 428 kts 278°
2026-05-04 15:12 51.88601 2.09365 34010 ft 428 kts 278°
2026-05-04 15:12 51.89877 1.99948 34009 ft 428 kts 278°
2026-05-04 15:13 51.91144 1.90517 34023 ft 429 kts 278°
2026-05-04 15:13 51.92410 1.81078 34017 ft 429 kts 278°
2026-05-04 15:14 51.93669 1.71640 34014 ft 429 kts 278°
2026-05-04 15:14 51.94924 1.62195 34010 ft 429 kts 278°
2026-05-04 15:15 51.96166 1.52745 34016 ft 429 kts 278°
2026-05-04 15:15 51.97395 1.43286 34019 ft 429 kts 278°
2026-05-04 15:16 51.99237 1.29069 34017 ft 430 kts 278°
2026-05-04 15:17 52.01049 1.14877 34020 ft 430 kts 278°
2026-05-04 15:17 52.02867 1.00609 34023 ft 430 kts 278°
2026-05-04 15:18 52.04065 0.91094 34027 ft 431 kts 278°
2026-05-04 15:19 52.05649 0.78387 34030 ft 432 kts 279°
2026-05-04 15:19 52.07416 0.64035 34014 ft 432 kts 279°
2026-05-04 15:20 52.08587 0.54463 34036 ft 432 kts 278°
2026-05-04 15:20 52.09750 0.44870 34050 ft 433 kts 279°
2026-05-04 15:21 52.10909 0.35250 34034 ft 434 kts 279°
2026-05-04 15:22 52.12642 0.20776 34034 ft 435 kts 279°
2026-05-04 15:22 52.14355 0.06266 34036 ft 435 kts 279°
2026-05-04 15:23 52.15497 -0.03426 34024 ft 436 kts 278°
2026-05-04 15:23 52.17285 -0.12851 34013 ft 442 kts 300°
2026-05-04 15:24 52.24629 -0.29080 34007 ft 447 kts 305°
2026-05-04 15:25 52.26492 -0.33163 33720 ft 448 kts 305°
2026-05-04 15:25 52.28352 -0.37244 33386 ft 448 kts 305°
2026-05-04 15:25 52.30222 -0.41360 32348 ft 455 kts 305°
2026-05-04 15:26 52.33987 -0.49689 31058 ft 452 kts 304°
2026-05-04 15:26 52.35848 -0.53818 30450 ft 450 kts 304°
2026-05-04 15:26 52.39537 -0.62005 29214 ft 443 kts 304°
2026-05-04 15:27 52.41353 -0.66033 28635 ft 438 kts 304°
2026-05-04 15:27 52.44903 -0.73930 27511 ft 429 kts 304°
2026-05-04 15:28 52.48390 -0.81732 26409 ft 420 kts 304°
2026-05-04 15:28 52.50111 -0.85599 25863 ft 417 kts 304°
2026-05-04 15:28 52.53502 -0.93227 24794 ft 410 kts 304°
2026-05-04 15:29 52.55177 -0.96998 24269 ft 407 kts 304°
2026-05-04 15:30 52.61703 -1.11732 22305 ft 387 kts 304°
2026-05-04 15:30 52.66334 -1.22274 21040 ft 371 kts 304°
2026-05-04 15:31 52.69397 -1.28984 20212 ft 364 kts 311°
2026-05-04 15:31 52.71259 -1.31798 19767 ft 364 kts 321°
2026-05-04 15:32 52.77909 -1.38719 18206 ft 378 kts 327°
2026-05-04 15:32 52.82361 -1.43266 17137 ft 373 kts 327°
2026-05-04 15:33 52.86738 -1.47756 16120 ft 369 kts 327°
2026-05-04 15:34 52.93210 -1.54411 14613 ft 363 kts 327°
2026-05-04 15:34 52.95325 -1.56588 14129 ft 361 kts 327°
2026-05-04 15:34 52.99570 -1.60979 13101 ft 357 kts 327°
2026-05-04 15:35 53.03743 -1.65299 12138 ft 350 kts 327°
2026-05-04 15:35 53.05655 -1.67688 11907 ft 338 kts 316°
2026-05-04 15:35 53.07205 -1.70511 11782 ft 324 kts 310°
2026-05-04 15:36 53.10037 -1.75987 11529 ft 301 kts 310°
2026-05-04 15:36 53.11382 -1.78587 11300 ft 294 kts 310°
2026-05-04 15:36 53.12713 -1.81161 10886 ft 294 kts 311°
2026-05-04 15:37 53.14383 -1.83302 10497 ft 318 kts 334°
2026-05-04 15:37 53.16504 -1.84196 10224 ft 306 kts 353°
2026-05-04 15:37 53.18558 -1.84451 9808 ft 289 kts 355°
2026-05-04 15:37 53.20555 -1.84648 9238 ft 287 kts 355°
2026-05-04 15:38 53.22533 -1.84837 8888 ft 283 kts 355°
2026-05-04 15:38 53.24495 -1.85022 8525 ft 281 kts 355°
2026-05-04 15:38 53.26437 -1.85217 8165 ft 279 kts 355°
2026-05-04 15:38 53.28365 -1.85413 7782 ft 277 kts 355°
2026-05-04 15:39 53.30284 -1.85610 7412 ft 276 kts 355°
2026-05-04 15:39 53.32193 -1.85808 7036 ft 274 kts 355°
2026-05-04 15:39 53.35986 -1.86204 6286 ft 272 kts 355°
2026-05-04 15:40 53.37868 -1.86402 5911 ft 270 kts 355°
2026-05-04 15:40 53.39734 -1.86601 5533 ft 268 kts 355°
2026-05-04 15:40 53.41586 -1.86803 5188 ft 265 kts 355°
2026-05-04 15:40 53.43375 -1.87126 5056 ft 253 kts 343°
2026-05-04 15:41 53.44861 -1.88512 4956 ft 239 kts 320°
2026-05-04 15:41 53.46045 -1.90322 4808 ft 220 kts 316°
2026-05-04 15:41 53.47085 -1.91994 4683 ft 195 kts 315°
2026-05-04 15:41 53.48018 -1.93500 4238 ft 182 kts 315°
2026-05-04 15:42 53.48881 -1.95051 3622 ft 181 kts 300°
2026-05-04 15:42 53.49186 -1.97092 3521 ft 184 kts 271°
2026-05-04 15:42 53.48899 -1.99167 3518 ft 184 kts 244°
2026-05-04 15:42 53.48173 -2.00837 3513 ft 172 kts 232°
2026-05-04 15:43 53.47436 -2.02380 3517 ft 168 kts 232°
2026-05-04 15:43 53.46719 -2.03880 3510 ft 166 kts 232°
2026-05-04 15:43 53.45997 -2.05390 3380 ft 165 kts 232°
2026-05-04 15:43 53.45278 -2.06893 3189 ft 165 kts 232°
2026-05-04 15:44 53.44558 -2.08396 2973 ft 165 kts 232°
2026-05-04 15:44 53.43840 -2.09895 2752 ft 165 kts 232°
2026-05-04 15:44 53.43122 -2.11392 2530 ft 164 kts 232°
2026-05-04 15:44 53.42408 -2.12880 2291 ft 164 kts 232°
2026-05-04 15:45 53.41695 -2.14364 2070 ft 163 kts 232°
2026-05-04 15:45 53.40983 -2.15847 1849 ft 163 kts 232°
2026-05-04 15:45 53.40293 -2.17282 1623 ft 152 kts 232°
2026-05-04 15:45 53.39641 -2.18637 1418 ft 147 kts 232°
2026-05-04 15:46 53.39003 -2.19963 1217 ft 145 kts 232°
2026-05-04 15:46 53.38376 -2.21267 1011 ft 143 kts 231°
2026-05-04 15:46 53.37753 -2.22560 811 ft 142 kts 231°
2026-05-04 15:46 53.37140 -2.23838 621 ft 140 kts 231°
2026-05-04 15:47 53.36529 -2.25101 424 ft 139 kts 231°
2026-05-04 15:47 53.35928 -2.26352 275 ft 136 kts 231°
2026-05-04 15:47 53.35341 -2.27572 299 ft 136 kts 232°
2026-05-04 15:47 53.34718 -2.28880 826 ft 147 kts 230°
2026-05-04 15:48 53.34101 -2.30264 1521 ft 150 kts 233°
2026-05-04 15:48 53.33467 -2.31690 2114 ft 161 kts 233°
2026-05-04 15:48 53.32286 -2.35325 2782 ft 198 kts 267°
2026-05-04 15:49 53.32668 -2.37520 3269 ft 202 kts 303°
2026-05-04 15:49 53.33801 -2.39045 3483 ft 227 kts 336°
2026-05-04 15:49 53.35482 -2.39632 3490 ft 270 kts 353°